Time,TemperatureF,DewpointF,PressureIn,WindDirection,WindDirectionDegrees,WindSpeedMPH,WindSpeedGustMPH,Humidity,HourlyPrecipIn,Conditions,Clouds,dailyrainin,SoftwareType,DateUTC
2013-01-31 00:01:00,66.9,63.9,29.59,NNW,338,3.0,24.0,90,0.00,,,0.00,meteohub,2013-01-31 05:01:00,
2013-01-31 00:02:00,66.9,63.9,29.59,South,190,9.0,24.0,90,0.00,,,0.00,meteohub,2013-01-31 05:02:00,
2013-01-31 00:03:00,66.9,63.9,29.59,South,188,13.0,24.0,90,0.00,,,0.00,meteohub,2013-01-31 05:03:00,
2013-01-31 00:08:00,66.9,63.9,29.59,ESE,123,18.0,24.0,90,0.00,,,0.00,meteohub,2013-01-31 05:08:00,
2013-01-31 00:13:00,67.3,64.2,29.59,West,259,8.0,23.0,90,0.00,,,0.00,meteohub,2013-01-31 05:13:00,
2013-01-31 00:18:00,67.5,64.4,29.58,WSW,256,10.0,23.0,90,0.00,,,0.00,meteohub,2013-01-31 05:18:00,
2013-01-31 00:23:00,67.5,64.4,29.57,SW,217,8.0,23.0,90,0.00,,,0.00,meteohub,2013-01-31 05:23:00,
2013-01-31 00:28:00,67.5,64.0,29.57,West,279,12.0,23.0,89,0.00,,,0.00,meteohub,2013-01-31 05:28:00,
2013-01-31 00:33:00,67.3,64.2,29.57,SW,215,14.0,29.0,90,0.00,,,0.00,meteohub,2013-01-31 05:33:00,
2013-01-31 00:38:00,67.3,64.2,29.57,East,92,2.0,29.0,90,0.00,,,0.00,meteohub,2013-01-31 05:38:00,
2013-01-31 00:43:00,67.5,64.4,29.56,SW,227,12.0,29.0,90,0.00,,,0.00,meteohub,2013-01-31 05:43:00,
2013-01-31 00:48:00,67.5,64.4,29.56,West,267,10.0,29.0,90,0.00,,,0.00,meteohub,2013-01-31 05:48:00,
2013-01-31 00:53:00,67.6,64.6,29.55,SW,215,20.0,29.0,90,0.00,,,0.00,meteohub,2013-01-31 05:53:00,
2013-01-31 00:58:00,67.6,64.6,29.55,WNW,290,6.0,26.0,90,0.00,,,0.00,meteohub,2013-01-31 05:58:00,
2013-01-31 01:03:00,68.2,65.1,29.55,South,187,18.0,26.0,90,0.00,,,0.00,meteohub,2013-01-31 06:03:00,
2013-01-31 01:08:00,68.4,65.3,29.54,SW,232,12.0,26.0,90,0.00,,,0.00,meteohub,2013-01-31 06:08:00,
2013-01-31 01:13:00,68.7,65.3,29.54,SSW,192,9.0,26.0,89,0.00,,,0.00,meteohub,2013-01-31 06:13:00,
2013-01-31 01:18:00,69.3,66.2,29.55,SSW,207,13.0,26.0,90,0.00,,,0.00,meteohub,2013-01-31 06:18:00,
2013-01-31 01:23:00,70.0,66.2,29.53,SW,216,13.0,25.0,88,0.00,,,0.00,meteohub,2013-01-31 06:23:00,
2013-01-31 01:28:00,70.3,66.6,29.52,SSW,205,10.0,25.0,88,0.00,,,0.00,meteohub,2013-01-31 06:28:00,
2013-01-31 01:33:00,70.5,66.7,29.52,SSW,205,14.0,25.0,88,0.00,,,0.00,meteohub,2013-01-31 06:33:00,
2013-01-31 01:38:00,70.7,66.9,29.51,SSW,206,15.0,26.0,88,0.00,,,0.00,meteohub,2013-01-31 06:38:00,
2013-01-31 01:43:00,70.5,66.7,29.51,SW,214,15.0,26.0,88,0.00,,,0.00,meteohub,2013-01-31 06:43:00,
2013-01-31 01:48:00,70.0,66.9,29.52,WSW,250,16.0,26.0,90,0.00,,,0.00,meteohub,2013-01-31 06:48:00,
2013-01-31 01:53:00,67.5,64.4,29.57,West,268,14.0,31.0,90,0.07,,,0.00,meteohub,2013-01-31 06:53:00,
2013-01-31 01:58:00,65.3,62.6,29.57,WSW,242,12.0,31.0,91,0.07,,,0.00,meteohub,2013-01-31 06:58:00,
2013-01-31 02:03:00,63.9,60.8,29.59,West,277,12.0,31.0,90,0.07,,,0.15,meteohub,2013-01-31 07:03:00,
2013-01-31 02:09:00,63.0,60.3,29.59,WSW,245,22.0,31.0,91,0.07,,,0.15,meteohub,2013-01-31 07:09:00,
2013-01-31 02:14:00,62.6,60.3,29.60,West,268,10.0,32.0,92,0.15,,,0.15,meteohub,2013-01-31 07:14:00,
2013-01-31 02:19:00,62.2,59.5,29.60,WSW,257,14.0,32.0,91,0.15,,,0.15,meteohub,2013-01-31 07:19:00,
2013-01-31 02:24:00,61.5,58.3,29.61,WSW,245,19.0,32.0,89,0.15,,,0.15,meteohub,2013-01-31 07:24:00,
2013-01-31 02:29:00,60.1,56.8,29.61,SW,234,19.0,29.0,89,0.15,,,0.15,meteohub,2013-01-31 07:29:00,
2013-01-31 02:34:00,59.0,56.3,29.61,WSW,256,7.0,29.0,91,0.15,,,0.15,meteohub,2013-01-31 07:34:00,
2013-01-31 02:39:00,58.5,55.8,29.60,West,268,11.0,29.0,91,0.15,,,0.16,meteohub,2013-01-31 07:39:00,
2013-01-31 02:44:00,58.3,55.9,29.61,WNW,282,4.0,26.0,92,0.16,,,0.16,meteohub,2013-01-31 07:44:00,
2013-01-31 02:49:00,58.1,55.8,29.61,West,268,10.0,26.0,92,0.16,,,0.16,meteohub,2013-01-31 07:49:00,
2013-01-31 02:54:00,57.9,55.6,29.60,WSW,255,11.0,26.0,92,0.16,,,0.17,meteohub,2013-01-31 07:54:00,
2013-01-31 02:59:00,57.7,55.2,29.61,WNW,287,13.0,23.0,91,0.03,,,0.17,meteohub,2013-01-31 07:59:00,
2013-01-31 03:04:00,57.6,55.0,29.61,West,266,22.0,23.0,91,0.03,,,0.17,meteohub,2013-01-31 08:04:00,
2013-01-31 03:09:00,57.4,54.5,29.62,WSW,258,18.0,23.0,90,0.03,,,0.17,meteohub,2013-01-31 08:09:00,
2013-01-31 03:14:00,57.0,54.1,29.62,WSW,248,10.0,27.0,90,0.03,,,0.17,meteohub,2013-01-31 08:14:00,
2013-01-31 03:19:00,56.8,53.6,29.62,West,269,10.0,27.0,89,0.03,,,0.17,meteohub,2013-01-31 08:19:00,
2013-01-31 03:24:00,56.7,53.1,29.63,SW,235,13.0,27.0,88,0.03,,,0.18,meteohub,2013-01-31 08:24:00,
2013-01-31 03:29:00,56.3,52.9,29.63,WNW,286,14.0,26.0,88,0.03,,,0.18,meteohub,2013-01-31 08:29:00,
2013-01-31 03:34:00,55.8,52.5,29.63,West,267,12.0,26.0,89,0.03,,,0.18,meteohub,2013-01-31 08:34:00,
2013-01-31 03:39:00,55.2,51.8,29.63,West,263,13.0,26.0,88,0.03,,,0.18,meteohub,2013-01-31 08:39:00,
2013-01-31 03:44:00,54.7,50.5,29.62,WSW,252,9.0,27.0,86,0.02,,,0.18,meteohub,2013-01-31 08:44:00,
2013-01-31 03:49:00,54.1,49.8,29.62,SW,228,13.0,27.0,85,0.02,,,0.18,meteohub,2013-01-31 08:49:00,
2013-01-31 03:54:00,54.0,49.6,29.63,West,269,13.0,27.0,85,0.02,,,0.18,meteohub,2013-01-31 08:54:00,
2013-01-31 03:59:00,53.8,49.1,29.64,West,281,13.0,25.0,84,0.01,,,0.18,meteohub,2013-01-31 08:59:00,
2013-01-31 04:04:00,53.8,49.1,29.64,West,279,15.0,25.0,84,0.01,,,0.18,meteohub,2013-01-31 09:04:00,
2013-01-31 04:09:00,53.4,48.7,29.64,West,270,13.0,25.0,84,0.01,,,0.18,meteohub,2013-01-31 09:09:00,
2013-01-31 04:14:00,53.4,48.7,29.64,WSW,250,11.0,24.0,84,0.00,,,0.18,meteohub,2013-01-31 09:14:00,
2013-01-31 04:19:00,53.2,48.6,29.65,West,269,19.0,24.0,84,0.00,,,0.18,meteohub,2013-01-31 09:19:00,
2013-01-31 04:24:00,53.2,48.2,29.65,West,273,11.0,24.0,83,0.00,,,0.18,meteohub,2013-01-31 09:24:00,
2013-01-31 04:29:00,53.2,48.2,29.65,West,259,11.0,24.0,83,0.00,,,0.18,meteohub,2013-01-31 09:29:00,
2013-01-31 04:34:00,53.2,48.2,29.65,SW,224,13.0,24.0,83,0.00,,,0.18,meteohub,2013-01-31 09:34:00,
2013-01-31 04:39:00,53.2,48.2,29.65,West,271,12.0,24.0,83,0.00,,,0.18,meteohub,2013-01-31 09:39:00,
2013-01-31 04:44:00,53.2,47.8,29.66,West,275,10.0,24.0,82,0.00,,,0.18,meteohub,2013-01-31 09:44:00,
2013-01-31 04:49:00,53.4,48.0,29.66,WSW,255,8.0,24.0,82,0.00,,,0.18,meteohub,2013-01-31 09:49:00,
2013-01-31 04:54:00,53.6,47.8,29.66,WSW,249,19.0,24.0,81,0.00,,,0.18,meteohub,2013-01-31 09:54:00,
2013-01-31 04:59:00,53.6,47.8,29.66,West,267,13.0,24.0,81,0.00,,,0.18,meteohub,2013-01-31 09:59:00,
2013-01-31 05:04:00,53.4,47.5,29.67,SW,232,8.0,27.0,80,0.00,,,0.18,meteohub,2013-01-31 10:04:00,
2013-01-31 05:09:00,53.4,47.5,29.68,WSW,250,15.0,27.0,80,0.00,,,0.18,meteohub,2013-01-31 10:09:00,
2013-01-31 05:14:00,53.2,47.3,29.67,West,269,10.0,27.0,80,0.00,,,0.18,meteohub,2013-01-31 10:14:00,
2013-01-31 05:19:00,53.2,47.3,29.67,WSW,244,11.0,27.0,80,0.00,,,0.18,meteohub,2013-01-31 10:19:00,
2013-01-31 05:24:00,53.2,47.3,29.68,WSW,257,10.0,27.0,80,0.00,,,0.18,meteohub,2013-01-31 10:24:00,
2013-01-31 05:29:00,53.1,47.1,29.68,West,259,7.0,19.0,80,0.00,,,0.18,meteohub,2013-01-31 10:29:00,
2013-01-31 05:34:00,53.1,47.1,29.68,SW,226,7.0,19.0,80,0.00,,,0.18,meteohub,2013-01-31 10:34:00,
2013-01-31 05:39:00,53.1,47.1,29.68,West,277,12.0,19.0,80,0.00,,,0.18,meteohub,2013-01-31 10:39:00,
2013-01-31 05:44:00,53.1,47.3,29.69,WSW,249,16.0,19.0,81,0.00,,,0.18,meteohub,2013-01-31 10:44:00,
2013-01-31 05:49:00,52.9,47.3,29.69,WSW,257,11.0,19.0,81,0.00,,,0.18,meteohub,2013-01-31 10:49:00,
2013-01-31 05:54:00,52.7,47.1,29.69,WSW,243,13.0,19.0,81,0.00,,,0.18,meteohub,2013-01-31 10:54:00,
2013-01-31 05:59:00,52.7,47.1,29.70,West,262,14.0,19.0,81,0.00,,,0.18,meteohub,2013-01-31 10:59:00,
2013-01-31 06:04:00,52.5,46.9,29.70,West,261,9.0,19.0,81,0.00,,,0.18,meteohub,2013-01-31 11:04:00,
2013-01-31 06:09:00,52.5,46.9,29.70,West,275,16.0,19.0,81,0.00,,,0.18,meteohub,2013-01-31 11:09:00,
2013-01-31 06:14:00,52.3,46.8,29.71,SW,222,10.0,19.0,81,0.00,,,0.18,meteohub,2013-01-31 11:14:00,
2013-01-31 06:19:00,52.3,46.8,29.71,SW,233,8.0,19.0,81,0.00,,,0.18,meteohub,2013-01-31 11:19:00,
2013-01-31 06:24:00,52.2,46.6,29.72,WSW,244,9.0,21.0,81,0.00,,,0.18,meteohub,2013-01-31 11:24:00,
2013-01-31 06:29:00,52.2,46.6,29.72,West,259,12.0,21.0,81,0.00,,,0.18,meteohub,2013-01-31 11:29:00,
2013-01-31 06:34:00,52.2,46.6,29.72,WSW,241,15.0,21.0,81,0.00,,,0.18,meteohub,2013-01-31 11:34:00,
2013-01-31 06:39:00,52.0,46.4,29.72,SW,227,11.0,21.0,81,0.00,,,0.18,meteohub,2013-01-31 11:39:00,
2013-01-31 06:44:00,52.0,46.0,29.73,WSW,250,17.0,21.0,80,0.00,,,0.18,meteohub,2013-01-31 11:44:00,
2013-01-31 06:49:00,52.0,46.0,29.73,West,260,9.0,21.0,80,0.00,,,0.18,meteohub,2013-01-31 11:49:00,
2013-01-31 06:54:00,52.0,45.7,29.73,WSW,257,11.0,21.0,79,0.00,,,0.18,meteohub,2013-01-31 11:54:00,
2013-01-31 06:59:00,52.0,45.7,29.74,WSW,256,18.0,21.0,79,0.00,,,0.18,meteohub,2013-01-31 11:59:00,
2013-01-31 07:04:00,51.8,45.5,29.74,West,272,12.0,19.0,79,0.00,,,0.18,meteohub,2013-01-31 12:04:00,
2013-01-31 07:09:00,51.6,45.0,29.75,WSW,244,7.0,19.0,78,0.00,,,0.18,meteohub,2013-01-31 12:09:00,
2013-01-31 07:14:00,51.3,43.5,29.75,WSW,257,14.0,19.0,75,0.00,,,0.18,meteohub,2013-01-31 12:14:00,
2013-01-31 07:19:00,51.1,43.2,29.76,WSW,253,18.0,19.0,74,0.00,,,0.18,meteohub,2013-01-31 12:19:00,
2013-01-31 07:24:00,50.7,42.4,29.76,WNW,286,16.0,19.0,73,0.00,,,0.18,meteohub,2013-01-31 12:24:00,
2013-01-31 07:29:00,50.5,41.5,29.77,WNW,284,16.0,19.0,71,0.00,,,0.18,meteohub,2013-01-31 12:29:00,
2013-01-31 07:34:00,50.4,41.0,29.77,West,262,16.0,19.0,70,0.00,,,0.18,meteohub,2013-01-31 12:34:00,
2013-01-31 07:39:00,49.8,40.5,29.78,WSW,241,11.0,19.0,70,0.00,,,0.18,meteohub,2013-01-31 12:39:00,
2013-01-31 07:44:00,49.6,40.3,29.78,West,262,9.0,23.0,70,0.00,,,0.18,meteohub,2013-01-31 12:44:00,
2013-01-31 07:49:00,49.6,40.3,29.79,West,259,11.0,23.0,70,0.00,,,0.18,meteohub,2013-01-31 12:49:00,
2013-01-31 07:54:00,49.6,39.9,29.79,WSW,254,11.0,23.0,69,0.00,,,0.18,meteohub,2013-01-31 12:54:00,
2013-01-31 07:59:00,49.6,39.2,29.79,West,273,16.0,23.0,67,0.00,,,0.18,meteohub,2013-01-31 12:59:00,
2013-01-31 08:04:00,49.6,38.7,29.80,WSW,254,17.0,23.0,66,0.00,,,0.18,meteohub,2013-01-31 13:04:00,
2013-01-31 08:09:00,49.6,38.7,29.81,West,267,17.0,23.0,66,0.00,,,0.18,meteohub,2013-01-31 13:09:00,
2013-01-31 08:14:00,49.6,38.7,29.81,West,269,16.0,23.0,66,0.00,,,0.18,meteohub,2013-01-31 13:14:00,
2013-01-31 08:19:00,49.5,38.7,29.81,WSW,247,12.0,24.0,66,0.00,,,0.18,meteohub,2013-01-31 13:19:00,
2013-01-31 08:24:00,49.5,38.1,29.81,WSW,250,15.0,24.0,65,0.00,,,0.18,meteohub,2013-01-31 13:24:00,
2013-01-31 08:29:00,49.5,38.1,29.81,SW,233,20.0,24.0,65,0.00,,,0.18,meteohub,2013-01-31 13:29:00,
2013-01-31 08:34:00,49.5,38.7,29.81,West,270,12.0,24.0,66,0.00,,,0.18,meteohub,2013-01-31 13:34:00,
2013-01-31 08:39:00,49.6,38.7,29.82,West,275,17.0,24.0,66,0.00,,,0.18,meteohub,2013-01-31 13:39:00,
2013-01-31 08:44:00,49.6,38.7,29.83,West,274,10.0,24.0,66,0.00,,,0.18,meteohub,2013-01-31 13:44:00,
2013-01-31 08:49:00,49.8,38.1,29.82,WSW,254,16.0,26.0,64,0.00,,,0.18,meteohub,2013-01-31 13:49:00,
2013-01-31 08:54:00,49.6,38.3,29.83,West,276,23.0,26.0,65,0.00,,,0.18,meteohub,2013-01-31 13:54:00,
2013-01-31 08:59:00,49.5,38.1,29.83,WSW,254,11.0,26.0,65,0.00,,,0.18,meteohub,2013-01-31 13:59:00,
2013-01-31 09:04:00,49.6,37.9,29.83,WSW,245,8.0,26.0,64,0.00,,,0.18,meteohub,2013-01-31 14:04:00,
2013-01-31 09:09:00,49.5,38.1,29.83,WSW,240,7.0,26.0,65,0.00,,,0.18,meteohub,2013-01-31 14:09:00,
2013-01-31 09:14:00,49.3,37.9,29.83,West,264,7.0,24.0,65,0.00,,,0.18,meteohub,2013-01-31 14:14:00,
2013-01-31 09:19:00,49.5,37.8,29.84,WSW,254,16.0,24.0,64,0.00,,,0.18,meteohub,2013-01-31 14:19:00,
2013-01-31 09:24:00,49.5,37.8,29.85,West,266,11.0,24.0,64,0.00,,,0.18,meteohub,2013-01-31 14:24:00,
2013-01-31 09:29:00,49.8,38.1,29.85,WSW,247,14.0,24.0,64,0.00,,,0.18,meteohub,2013-01-31 14:29:00,
2013-01-31 09:34:00,49.6,37.6,29.86,WSW,249,7.0,24.0,63,0.00,,,0.18,meteohub,2013-01-31 14:34:00,
2013-01-31 09:39:00,49.8,37.8,29.85,West,265,18.0,23.0,63,0.00,,,0.18,meteohub,2013-01-31 14:39:00,
2013-01-31 09:44:00,49.8,36.9,29.86,West,267,17.0,23.0,61,0.00,,,0.18,meteohub,2013-01-31 14:44:00,
2013-01-31 09:49:00,49.6,37.2,29.86,WSW,251,11.0,23.0,62,0.00,,,0.18,meteohub,2013-01-31 14:49:00,
2013-01-31 09:54:00,49.6,36.7,29.86,West,269,16.0,-999.0,61,0.00,,,0.18,meteohub,2013-01-31 14:54:00,
2013-01-31 09:59:00,49.8,36.5,29.86,WSW,252,15.0,23.0,60,0.00,,,0.18,meteohub,2013-01-31 14:59:00,
2013-01-31 10:04:00,49.8,36.9,29.87,WSW,251,12.0,23.0,61,0.00,,,0.18,meteohub,2013-01-31 15:04:00,
2013-01-31 10:09:00,50.2,36.9,29.87,West,276,8.0,23.0,60,0.00,,,0.18,meteohub,2013-01-31 15:09:00,
2013-01-31 10:14:00,50.5,36.7,29.87,West,267,14.0,24.0,59,0.00,,,0.18,meteohub,2013-01-31 15:14:00,
2013-01-31 10:19:00,50.5,37.2,29.87,West,279,8.0,24.0,60,0.00,,,0.18,meteohub,2013-01-31 15:19:00,
2013-01-31 10:24:00,50.2,35.6,29.87,WSW,254,16.0,24.0,57,0.00,,,0.18,meteohub,2013-01-31 15:24:00,
2013-01-31 10:29:00,50.2,35.6,29.87,West,260,9.0,25.0,57,0.00,,,0.18,meteohub,2013-01-31 15:29:00,
2013-01-31 10:34:00,50.5,36.3,29.87,WSW,254,17.0,25.0,58,0.00,,,0.18,meteohub,2013-01-31 15:34:00,
2013-01-31 10:39:00,50.7,36.0,29.87,WNW,282,13.0,25.0,57,0.00,,,0.18,meteohub,2013-01-31 15:39:00,
2013-01-31 10:44:00,50.7,34.7,29.88,WSW,255,11.0,23.0,54,0.00,,,0.18,meteohub,2013-01-31 15:44:00,
2013-01-31 10:49:00,50.9,34.9,29.87,WSW,248,18.0,23.0,54,0.00,,,0.18,meteohub,2013-01-31 15:49:00,
2013-01-31 10:54:00,50.5,34.0,29.87,WSW,254,16.0,23.0,53,0.00,,,0.18,meteohub,2013-01-31 15:54:00,
2013-01-31 10:59:00,50.9,34.0,29.87,WSW,254,20.0,23.0,52,0.00,,,0.18,meteohub,2013-01-31 15:59:00,
2013-01-31 11:04:00,50.7,33.8,29.87,West,280,16.0,23.0,52,0.00,,,0.18,meteohub,2013-01-31 16:04:00,
2013-01-31 11:09:00,51.1,34.0,29.87,West,273,21.0,23.0,52,0.00,,,0.18,meteohub,2013-01-31 16:09:00,
2013-01-31 11:14:00,51.1,34.0,29.87,WSW,254,22.0,23.0,52,0.00,,,0.18,meteohub,2013-01-31 16:14:00,
2013-01-31 11:19:00,51.4,34.0,29.87,West,275,14.0,23.0,51,0.00,,,0.18,meteohub,2013-01-31 16:19:00,
2013-01-31 11:24:00,51.1,34.0,29.87,WSW,240,13.0,23.0,52,0.00,,,0.18,meteohub,2013-01-31 16:24:00,
2013-01-31 11:29:00,51.3,33.8,29.87,WNW,284,14.0,27.0,51,0.00,,,0.18,meteohub,2013-01-31 16:29:00,
2013-01-31 11:34:00,51.6,34.5,29.87,West,267,3.0,27.0,52,0.00,,,0.18,meteohub,2013-01-31 16:34:00,
2013-01-31 11:39:00,52.0,34.3,29.87,WNW,291,6.0,27.0,51,0.00,,,0.18,meteohub,2013-01-31 16:39:00,
2013-01-31 11:44:00,52.0,33.4,29.88,WSW,252,11.0,24.0,49,0.00,,,0.18,meteohub,2013-01-31 16:44:00,
2013-01-31 11:49:00,52.0,32.9,29.88,West,266,17.0,24.0,48,0.00,,,0.18,meteohub,2013-01-31 16:49:00,
2013-01-31 11:54:00,52.0,34.0,29.87,West,281,10.0,24.0,50,0.00,,,0.18,meteohub,2013-01-31 16:54:00,
2013-01-31 11:59:00,52.2,33.1,29.87,WNW,290,7.0,24.0,48,0.00,,,0.18,meteohub,2013-01-31 16:59:00,
2013-01-31 12:04:00,52.2,33.1,29.87,WSW,254,7.0,24.0,48,0.00,,,0.18,meteohub,2013-01-31 17:04:00,
2013-01-31 12:09:00,52.2,33.6,29.87,WSW,258,15.0,24.0,49,0.00,,,0.18,meteohub,2013-01-31 17:09:00,
2013-01-31 12:14:00,52.5,32.9,29.87,WSW,248,15.0,24.0,47,0.00,,,0.18,meteohub,2013-01-31 17:14:00,
2013-01-31 12:19:00,52.3,32.7,29.87,WSW,254,12.0,21.0,47,0.00,,,0.18,meteohub,2013-01-31 17:19:00,
2013-01-31 12:24:00,52.3,33.3,29.87,West,270,7.0,21.0,48,0.00,,,0.18,meteohub,2013-01-31 17:24:00,
2013-01-31 12:29:00,52.9,33.8,29.87,SW,235,9.0,21.0,48,0.00,,,0.18,meteohub,2013-01-31 17:29:00,
2013-01-31 12:34:00,53.1,33.4,29.86,West,273,11.0,21.0,47,0.00,,,0.18,meteohub,2013-01-31 17:34:00,
2013-01-31 12:39:00,52.3,32.7,29.86,West,263,10.0,20.0,47,0.00,,,0.18,meteohub,2013-01-31 17:39:00,
2013-01-31 12:44:00,52.7,33.6,29.86,WSW,252,12.0,20.0,48,0.00,,,0.18,meteohub,2013-01-31 17:44:00,
2013-01-31 12:49:00,53.1,33.4,29.86,WSW,237,11.0,20.0,47,0.00,,,0.18,meteohub,2013-01-31 17:49:00,
2013-01-31 12:54:00,53.1,33.4,29.86,WSW,257,11.0,20.0,47,0.00,,,0.18,meteohub,2013-01-31 17:54:00,
2013-01-31 12:59:00,53.4,33.6,29.86,West,259,9.0,19.0,47,0.00,,,0.18,meteohub,2013-01-31 17:59:00,
2013-01-31 13:04:00,53.1,32.9,29.86,WSW,256,11.0,19.0,46,0.00,,,0.18,meteohub,2013-01-31 18:04:00,
2013-01-31 13:09:00,53.8,33.4,29.86,WNW,284,11.0,19.0,46,0.00,,,0.18,meteohub,2013-01-31 18:09:00,
2013-01-31 13:14:00,53.2,31.3,29.86,West,264,5.0,25.0,43,0.00,,,0.18,meteohub,2013-01-31 18:14:00,
2013-01-31 13:19:00,53.8,32.4,29.86,West,271,7.0,25.0,44,0.00,,,0.18,meteohub,2013-01-31 18:19:00,
2013-01-31 13:24:00,53.6,32.2,29.86,West,277,1.0,25.0,44,0.00,,,0.18,meteohub,2013-01-31 18:24:00,
2013-01-31 13:29:00,53.4,32.5,29.86,WNW,288,9.0,19.0,45,0.00,,,0.18,meteohub,2013-01-31 18:29:00,
2013-01-31 13:34:00,54.0,33.1,29.86,WSW,257,6.0,19.0,45,0.00,,,0.18,meteohub,2013-01-31 18:34:00,
2013-01-31 13:39:00,53.8,32.4,29.86,West,270,9.0,19.0,44,0.00,,,0.18,meteohub,2013-01-31 18:39:00,
2013-01-31 13:44:00,54.1,33.3,29.86,West,270,5.0,20.0,45,0.00,,,0.18,meteohub,2013-01-31 18:44:00,
2013-01-31 13:49:00,54.3,31.6,29.86,West,266,5.0,20.0,42,0.00,,,0.18,meteohub,2013-01-31 18:49:00,
2013-01-31 13:54:00,54.9,33.4,29.86,SW,227,8.0,20.0,44,0.00,,,0.18,meteohub,2013-01-31 18:54:00,
2013-01-31 13:59:00,54.7,32.0,29.86,West,263,14.0,17.0,42,0.00,,,0.18,meteohub,2013-01-31 18:59:00,
2013-01-31 14:04:00,54.3,32.9,29.86,SW,231,12.0,17.0,44,0.00,,,0.18,meteohub,2013-01-31 19:04:00,
2013-01-31 14:09:00,54.3,32.4,29.86,WSW,252,7.0,17.0,43,0.00,,,0.18,meteohub,2013-01-31 19:09:00,
2013-01-31 14:14:00,54.9,32.2,29.86,WSW,248,8.0,17.0,42,0.00,,,0.18,meteohub,2013-01-31 19:14:00,
2013-01-31 14:19:00,54.9,30.9,29.86,WSW,247,7.0,17.0,40,0.00,,,0.18,meteohub,2013-01-31 19:19:00,
2013-01-31 14:24:00,55.6,32.9,29.87,West,274,6.0,17.0,42,0.00,,,0.18,meteohub,2013-01-31 19:24:00,
2013-01-31 14:29:00,55.0,30.6,29.87,WSW,248,9.0,19.0,39,0.00,,,0.18,meteohub,2013-01-31 19:29:00,
2013-01-31 14:34:00,54.9,29.7,29.86,West,267,13.0,19.0,38,0.00,,,0.18,meteohub,2013-01-31 19:34:00,
2013-01-31 14:39:00,54.7,29.5,29.86,West,261,9.0,19.0,38,0.00,,,0.18,meteohub,2013-01-31 19:39:00,
2013-01-31 14:44:00,54.9,30.4,29.86,West,264,6.0,20.0,39,0.00,,,0.18,meteohub,2013-01-31 19:44:00,
2013-01-31 14:50:00,54.9,29.1,29.87,West,269,12.0,20.0,37,0.00,,,0.18,meteohub,2013-01-31 19:50:00,
2013-01-31 14:55:00,55.4,29.5,29.87,West,279,9.0,20.0,37,0.00,,,0.18,meteohub,2013-01-31 19:55:00,
2013-01-31 15:00:00,54.9,27.7,29.87,West,277,10.0,19.0,35,0.00,,,0.18,meteohub,2013-01-31 20:00:00,
2013-01-31 15:05:00,54.9,29.1,29.87,West,269,9.0,19.0,37,0.00,,,0.18,meteohub,2013-01-31 20:05:00,
2013-01-31 15:10:00,55.2,28.8,29.87,West,260,13.0,19.0,36,0.00,,,0.18,meteohub,2013-01-31 20:10:00,
2013-01-31 15:15:00,55.0,28.6,29.87,West,272,13.0,21.0,36,0.00,,,0.18,meteohub,2013-01-31 20:15:00,
2013-01-31 15:20:00,54.9,28.4,29.87,West,263,6.0,21.0,36,0.00,,,0.18,meteohub,2013-01-31 20:20:00,
2013-01-31 15:25:00,55.2,28.8,29.87,West,275,7.0,21.0,36,0.00,,,0.18,meteohub,2013-01-31 20:25:00,
2013-01-31 15:30:00,55.0,29.3,29.87,WNW,295,10.0,19.0,37,0.00,,,0.18,meteohub,2013-01-31 20:30:00,
2013-01-31 15:35:00,55.2,30.0,29.88,NW,314,6.0,19.0,38,0.00,,,0.18,meteohub,2013-01-31 20:35:00,
2013-01-31 15:40:00,55.6,29.7,29.88,WSW,249,11.0,19.0,37,0.00,,,0.18,meteohub,2013-01-31 20:40:00,
2013-01-31 15:45:00,55.4,28.9,29.88,West,263,12.0,19.0,36,0.00,,,0.18,meteohub,2013-01-31 20:45:00,
2013-01-31 15:50:00,55.2,28.8,29.88,NW,319,5.0,17.0,36,0.00,,,0.18,meteohub,2013-01-31 20:50:00,
2013-01-31 15:55:00,55.0,28.6,29.88,WSW,250,10.0,17.0,36,0.00,,,0.18,meteohub,2013-01-31 20:55:00,
2013-01-31 16:00:00,54.9,29.7,29.89,SW,236,6.0,17.0,38,0.00,,,0.18,meteohub,2013-01-31 21:00:00,
2013-01-31 16:05:00,55.0,29.8,29.89,WNW,284,15.0,20.0,38,0.00,,,0.18,meteohub,2013-01-31 21:05:00,
2013-01-31 16:10:00,55.0,29.3,29.89,WSW,240,10.0,20.0,37,0.00,,,0.18,meteohub,2013-01-31 21:10:00,
2013-01-31 16:15:00,54.7,29.5,29.89,West,270,11.0,20.0,38,0.00,,,0.18,meteohub,2013-01-31 21:15:00,
2013-01-31 16:20:00,54.3,29.3,29.90,SW,234,12.0,21.0,38,0.00,,,0.18,meteohub,2013-01-31 21:20:00,
2013-01-31 16:25:00,54.7,29.5,29.90,WSW,255,4.0,21.0,38,0.00,,,0.18,meteohub,2013-01-31 21:25:00,
2013-01-31 16:30:00,54.7,28.9,29.90,SW,236,14.0,21.0,37,0.00,,,0.18,meteohub,2013-01-31 21:30:00,
2013-01-31 16:35:00,54.3,28.6,29.90,WSW,248,19.0,21.0,37,0.00,,,0.18,meteohub,2013-01-31 21:35:00,
2013-01-31 16:40:00,54.1,29.1,29.91,WSW,246,13.0,21.0,38,0.00,,,0.18,meteohub,2013-01-31 21:40:00,
2013-01-31 16:45:00,54.0,27.7,29.91,WSW,247,11.0,21.0,36,0.00,,,0.18,meteohub,2013-01-31 21:45:00,
2013-01-31 16:50:00,54.0,27.7,29.91,WSW,242,11.0,23.0,36,0.00,,,0.18,meteohub,2013-01-31 21:50:00,
2013-01-31 16:55:00,53.8,28.0,29.92,West,260,6.0,23.0,37,0.00,,,0.18,meteohub,2013-01-31 21:55:00,
2013-01-31 17:00:00,54.0,28.9,29.92,West,275,9.0,23.0,38,0.00,,,0.18,meteohub,2013-01-31 22:00:00,
2013-01-31 17:05:00,53.6,28.6,29.92,West,266,8.0,18.0,38,0.00,,,0.18,meteohub,2013-01-31 22:05:00,
2013-01-31 17:10:00,53.4,28.4,29.93,WSW,246,7.0,18.0,38,0.00,,,0.18,meteohub,2013-01-31 22:10:00,
2013-01-31 17:15:00,53.2,28.9,29.93,West,273,10.0,18.0,39,0.00,,,0.18,meteohub,2013-01-31 22:15:00,
2013-01-31 17:20:00,52.9,29.3,29.94,West,281,6.0,13.0,40,0.00,,,0.18,meteohub,2013-01-31 22:20:00,
2013-01-31 17:25:00,52.5,27.7,29.93,WSW,254,6.0,13.0,38,0.00,,,0.18,meteohub,2013-01-31 22:25:00,
2013-01-31 17:30:00,52.3,28.8,29.94,West,269,4.0,13.0,40,0.00,,,0.18,meteohub,2013-01-31 22:30:00,
2013-01-31 17:35:00,52.2,28.6,29.94,NW,311,7.0,14.0,40,0.00,,,0.18,meteohub,2013-01-31 22:35:00,
2013-01-31 17:40:00,52.0,28.4,29.94,WNW,290,5.0,14.0,40,0.00,,,0.18,meteohub,2013-01-31 22:40:00,
2013-01-31 17:45:00,51.6,29.3,29.95,West,265,4.0,14.0,42,0.00,,,0.18,meteohub,2013-01-31 22:45:00,
2013-01-31 17:50:00,51.4,29.1,29.95,West,279,2.0,11.0,42,0.00,,,0.18,meteohub,2013-01-31 22:50:00,
2013-01-31 17:55:00,51.3,28.9,29.95,WSW,255,8.0,11.0,42,0.00,,,0.18,meteohub,2013-01-31 22:55:00,
2013-01-31 18:00:00,51.1,28.2,29.96,West,274,5.0,11.0,41,0.00,,,0.18,meteohub,2013-01-31 23:00:00,
2013-01-31 18:05:00,51.1,28.8,29.96,West,259,4.0,9.0,42,0.00,,,0.18,meteohub,2013-01-31 23:05:00,
2013-01-31 18:10:00,50.7,29.1,29.96,WSW,248,5.0,9.0,43,0.00,,,0.18,meteohub,2013-01-31 23:10:00,
2013-01-31 18:15:00,50.5,30.0,29.96,West,266,1.0,9.0,45,0.00,,,0.18,meteohub,2013-01-31 23:15:00,
2013-01-31 18:20:00,50.2,29.1,29.97,West,261,1.0,9.0,44,0.00,,,0.18,meteohub,2013-01-31 23:20:00,
2013-01-31 18:25:00,49.6,30.7,29.97,West,268,2.0,8.0,48,0.00,,,0.18,meteohub,2013-01-31 23:25:00,
2013-01-31 18:30:00,49.6,29.7,29.98,WSW,258,0.0,8.0,46,0.00,,,0.18,meteohub,2013-01-31 23:30:00,
2013-01-31 18:35:00,49.5,30.0,29.99,West,260,1.0,8.0,47,0.00,,,0.18,meteohub,2013-01-31 23:35:00,
2013-01-31 18:40:00,49.3,29.8,29.99,West,263,0.0,8.0,47,0.00,,,0.18,meteohub,2013-01-31 23:40:00,
2013-01-31 18:45:00,48.7,31.5,29.99,West,262,0.0,3.0,51,0.00,,,0.18,meteohub,2013-01-31 23:45:00,
2013-01-31 18:50:00,48.4,30.0,29.99,WSW,248,1.0,3.0,49,0.00,,,0.18,meteohub,2013-01-31 23:50:00,
2013-01-31 18:55:00,48.6,29.3,29.99,West,273,4.0,4.0,47,0.00,,,0.18,meteohub,2013-01-31 23:55:00,
2013-01-31 19:00:00,48.7,29.8,29.99,West,266,2.0,3.0,48,0.00,,,0.18,meteohub,2013-02-01 00:00:00,
2013-01-31 19:05:00,48.6,29.8,30.00,West,265,3.0,9.0,48,0.00,,,0.18,meteohub,2013-02-01 00:05:00,
2013-01-31 19:10:00,48.6,29.8,30.00,West,263,6.0,9.0,48,0.00,,,0.18,meteohub,2013-02-01 00:10:00,
2013-01-31 19:15:00,48.4,29.7,30.00,WSW,248,2.0,9.0,48,0.00,,,0.18,meteohub,2013-02-01 00:15:00,
2013-01-31 19:20:00,48.2,30.0,30.01,West,270,3.0,8.0,49,0.00,,,0.18,meteohub,2013-02-01 00:20:00,
2013-01-31 19:25:00,48.2,29.5,30.01,West,275,2.0,8.0,48,0.00,,,0.18,meteohub,2013-02-01 00:25:00,
2013-01-31 19:30:00,48.0,29.3,30.01,WNW,284,0.0,8.0,48,0.00,,,0.18,meteohub,2013-02-01 00:30:00,
2013-01-31 19:35:00,47.8,29.7,30.01,WSW,255,3.0,8.0,49,0.00,,,0.18,meteohub,2013-02-01 00:35:00,
2013-01-31 19:40:00,47.8,29.1,30.01,West,268,5.0,8.0,48,0.00,,,0.18,meteohub,2013-02-01 00:40:00,
2013-01-31 19:45:00,47.8,29.1,30.02,West,274,4.0,8.0,48,0.00,,,0.18,meteohub,2013-02-01 00:45:00,
2013-01-31 19:50:00,47.7,28.9,30.02,West,265,3.0,8.0,48,0.00,,,0.18,meteohub,2013-02-01 00:50:00,
2013-01-31 19:55:00,47.8,29.1,30.02,West,266,4.0,8.0,48,0.00,,,0.18,meteohub,2013-02-01 00:55:00,
2013-01-31 20:00:00,47.8,29.1,30.02,WSW,254,3.0,9.0,48,0.00,,,0.18,meteohub,2013-02-01 01:00:00,
2013-01-31 20:05:00,47.7,28.4,30.02,WSW,254,4.0,9.0,47,0.00,,,0.18,meteohub,2013-02-01 01:05:00,
2013-01-31 20:10:00,47.7,28.9,30.02,WSW,251,3.0,9.0,48,0.00,,,0.18,meteohub,2013-02-01 01:10:00,
2013-01-31 20:15:00,47.3,28.6,30.02,West,259,1.0,8.0,48,0.00,,,0.18,meteohub,2013-02-01 01:15:00,
2013-01-31 20:20:00,46.9,28.8,30.03,West,265,1.0,8.0,49,0.00,,,0.18,meteohub,2013-02-01 01:20:00,
2013-01-31 20:25:00,46.9,28.8,30.03,WSW,254,1.0,7.0,49,0.00,,,0.18,meteohub,2013-02-01 01:25:00,
2013-01-31 20:30:00,46.8,28.6,30.03,WSW,257,2.0,7.0,49,0.00,,,0.18,meteohub,2013-02-01 01:30:00,
2013-01-31 20:35:00,46.6,28.9,30.03,WSW,240,2.0,5.0,50,0.00,,,0.18,meteohub,2013-02-01 01:35:00,
2013-01-31 20:40:00,46.4,28.8,30.03,West,273,3.0,5.0,50,0.00,,,0.18,meteohub,2013-02-01 01:40:00,
2013-01-31 20:45:00,46.2,28.6,30.03,West,265,1.0,6.0,50,0.00,,,0.18,meteohub,2013-02-01 01:45:00,
2013-01-31 20:50:00,46.0,28.9,30.03,WSW,244,2.0,6.0,51,0.00,,,0.18,meteohub,2013-02-01 01:50:00,
2013-01-31 20:55:00,45.9,29.3,30.03,WSW,257,3.0,7.0,52,0.00,,,0.18,meteohub,2013-02-01 01:55:00,
2013-01-31 21:00:00,45.7,29.1,30.03,West,263,1.0,7.0,52,0.00,,,0.18,meteohub,2013-02-01 02:00:00,
2013-01-31 21:05:00,45.7,29.5,30.04,West,276,2.0,7.0,53,0.00,,,0.18,meteohub,2013-02-01 02:05:00,
2013-01-31 21:10:00,45.5,28.9,30.04,WSW,256,1.0,7.0,52,0.00,,,0.18,meteohub,2013-02-01 02:10:00,
2013-01-31 21:15:00,45.3,29.7,30.04,West,262,1.0,6.0,54,0.00,,,0.18,meteohub,2013-02-01 02:15:00,
2013-01-31 21:20:00,45.3,28.8,30.04,WSW,257,3.0,6.0,52,0.00,,,0.18,meteohub,2013-02-01 02:20:00,
2013-01-31 21:25:00,45.3,28.8,30.04,West,261,1.0,6.0,52,0.00,,,0.18,meteohub,2013-02-01 02:25:00,
2013-01-31 21:30:00,45.3,28.8,30.04,WSW,257,3.0,6.0,52,0.00,,,0.18,meteohub,2013-02-01 02:30:00,
2013-01-31 21:35:00,45.3,29.1,30.05,WSW,240,4.0,6.0,53,0.00,,,0.18,meteohub,2013-02-01 02:35:00,
2013-01-31 21:40:00,45.3,29.1,30.05,West,263,2.0,7.0,53,0.00,,,0.18,meteohub,2013-02-01 02:40:00,
2013-01-31 21:45:00,45.1,28.9,30.05,WSW,248,1.0,7.0,53,0.00,,,0.18,meteohub,2013-02-01 02:45:00,
2013-01-31 21:50:00,45.1,28.6,30.06,WSW,246,4.0,7.0,52,0.00,,,0.18,meteohub,2013-02-01 02:50:00,
2013-01-31 21:55:00,45.0,28.4,30.05,WSW,252,2.0,9.0,52,0.00,,,0.18,meteohub,2013-02-01 02:55:00,
2013-01-31 22:00:00,45.0,28.9,30.06,WSW,257,1.0,9.0,53,0.00,,,0.18,meteohub,2013-02-01 03:00:00,
2013-01-31 22:05:00,45.0,29.3,30.05,West,269,3.0,9.0,54,0.00,,,0.18,meteohub,2013-02-01 03:05:00,
2013-01-31 22:10:00,44.8,29.1,30.06,West,272,3.0,7.0,54,0.00,,,0.18,meteohub,2013-02-01 03:10:00,
2013-01-31 22:15:00,44.8,29.1,30.06,SW,235,2.0,7.0,54,0.00,,,0.18,meteohub,2013-02-01 03:15:00,
2013-01-31 22:20:00,44.8,29.1,30.06,West,259,1.0,7.0,54,0.00,,,0.18,meteohub,2013-02-01 03:20:00,
2013-01-31 22:25:00,44.4,29.3,30.07,West,267,3.0,6.0,55,0.00,,,0.18,meteohub,2013-02-01 03:25:00,
2013-01-31 22:30:00,44.4,29.3,30.07,WSW,256,4.0,6.0,55,0.00,,,0.18,meteohub,2013-02-01 03:30:00,
2013-01-31 22:35:00,44.4,29.3,30.07,WSW,244,3.0,6.0,55,0.00,,,0.18,meteohub,2013-02-01 03:35:00,
2013-01-31 22:40:00,44.2,29.1,30.07,West,264,3.0,6.0,55,0.00,,,0.18,meteohub,2013-02-01 03:40:00,
2013-01-31 22:45:00,44.2,29.1,30.07,SW,236,3.0,7.0,55,0.00,,,0.18,meteohub,2013-02-01 03:45:00,
2013-01-31 22:50:00,44.2,28.6,30.07,WSW,252,0.0,7.0,54,0.00,,,0.18,meteohub,2013-02-01 03:50:00,
2013-01-31 22:55:00,44.1,28.9,30.07,WSW,252,1.0,7.0,55,0.00,,,0.18,meteohub,2013-02-01 03:55:00,
2013-01-31 23:00:00,43.9,28.8,30.07,WSW,252,0.0,6.0,55,0.00,,,0.18,meteohub,2013-02-01 04:00:00,
2013-01-31 23:05:00,43.7,29.1,30.07,WSW,244,1.0,5.0,56,0.00,,,0.18,meteohub,2013-02-01 04:05:00,
2013-01-31 23:10:00,43.9,28.8,30.08,West,263,2.0,5.0,55,0.00,,,0.18,meteohub,2013-02-01 04:10:00,
2013-01-31 23:15:00,44.1,28.9,30.07,WSW,250,0.0,5.0,55,0.00,,,0.18,meteohub,2013-02-01 04:15:00,
2013-01-31 23:20:00,44.2,29.1,30.07,West,261,5.0,6.0,55,0.00,,,0.18,meteohub,2013-02-01 04:20:00,
2013-01-31 23:25:00,44.2,28.6,30.07,SW,229,4.0,7.0,54,0.00,,,0.18,meteohub,2013-02-01 04:25:00,
2013-01-31 23:30:00,44.4,28.4,30.07,West,272,7.0,7.0,53,0.00,,,0.18,meteohub,2013-02-01 04:30:00,
2013-01-31 23:35:00,45.0,28.4,30.07,West,269,8.0,11.0,52,0.00,,,0.18,meteohub,2013-02-01 04:35:00,
2013-01-31 23:40:00,45.1,28.6,30.07,West,268,6.0,11.0,52,0.00,,,0.18,meteohub,2013-02-01 04:40:00,
2013-01-31 23:45:00,45.1,28.6,30.06,West,272,3.0,12.0,52,0.00,,,0.18,meteohub,2013-02-01 04:45:00,
2013-01-31 23:50:00,45.1,28.6,30.06,WSW,240,6.0,12.0,52,0.00,,,0.18,meteohub,2013-02-01 04:50:00,
2013-01-31 23:55:00,45.1,28.6,30.06,WSW,246,2.0,12.0,52,0.00,,,0.18,meteohub,2013-02-01 04:55:00,